Zurück zum Katalog

STARLINK-35483

AktivKommunikationVLEO
NORAD 66252·PAYLOAD·🇺🇸 United States

Gestartet Oct 29, 2025 von Cape Canaveral Space Force Station

Loading…

Nächste Überflüge (nächste 24 Stunden)

TLE

AktuellSource: CelesTrak SupGP

Epoche: Sep 14, 2026, 23:05 UTC

1 66252C 25245U   26257.96229167 -.00049025  00000+0 -14489-2 0  2579
2 66252  53.1579 123.5997 0001214  86.2984 183.1799 15.34404794    14

Verfolge STARLINK-35483 in Echtzeit mit AllMySat

Download on the App Store